Theta_e
355 356 357 356 357 356 356 356 356 353 355 356 356 351 351 351 352 352 351 350 351 350 347 345 346 348 343 343 343 343 348 351 351 350 349 350 354 359 363 361 362 361 361 361 360 360 360 359 359 359 359 360 360 361 361 363 363 364 364 365 366 367 368 368 368 368 368 368 368 369 369 369 369 369 369 369 369 368 368 367 366 366 365 364 364
355 355 355 354 355 356 355 354 353 351 352 352 352 350 349 350 352 352 352 353 350 348 356 346 344 346 343 342 339 338 345 349 352 350 349 350 352 357 363 363 361 362 361 361 361 361 361 361 361 362 362 362 363 363 364 364 365 365 366 367 367 367 367 367 368 368 369 369 368 368 368 368 369 369 369 369 369 369 369 368 368 367 366 365 365
358 355 356 356 356 355 354 353 351 352 354 352 352 351 354 350 352 354 355 353 353 351 353 350 346 341 344 341 338 340 343 346 353 351 349 349 350 354 360 363 361 362 362 362 362 362 363 363 363 363 364 364 364 365 366 366 366 367 367 367 367 367 368 369 368 368 367 366 365 365 365 365 366 366 368 368 368 369 369 369 368 368 367 367 366
355 355 356 355 354 353 353 353 353 354 353 352 352 357 356 358 359 360 361 359 357 353 353 347 343 340 341 340 339 339 341 345 352 351 349 350 350 353 355 358 363 363 363 363 363 363 363 364 364 364 365 366 366 367 366 367 367 367 367 368 367 368 369 369 368 366 365 365 366 367 366 366 366 366 366 368 368 367 368 369 369 368 368 368 366
354 354 359 356 353 351 351 355 353 357 358 361 361 361 358 359 355 360 354 357 353 350 351 345 342 340 345 339 339 338 340 340 345 352 351 349 349 350 353 357 356 364 363 363 363 364 363 364 365 365 365 365 365 366 366 366 367 367 367 368 369 370 370 368 365 365 366 367 367 366 366 366 365 365 366 368 369 369 369 369 369 369 369 368 367
352 351 352 351 350 358 350 350 352 356 360 365 361 360 355 357 357 358 362 356 347 347 347 343 339 341 342 340 337 338 341 339 342 353 351 346 348 350 351 352 354 355 359 364 364 364 364 364 365 366 365 365 365 366 367 366 367 368 369 369 369 370 369 364 364 366 367 367 367 367 368 368 367 368 369 370 371 371 370 370 370 370 369 369 368
352 351 352 351 352 355 357 357 360 363 362 364 362 356 359 357 362 356 352 352 350 351 350 345 342 339 340 345 340 341 341 338 338 348 349 348 348 348 348 351 352 354 357 355 365 364 364 365 366 366 366 366 367 367 368 369 369 369 369 369 369 368 367 366 366 367 367 367 366 366 367 368 369 370 371 371 371 371 371 370 369 368 368 368 368
353 353 354 355 355 355 356 364 366 362 365 360 362 354 359 359 357 357 347 348 354 352 350 345 343 338 344 345 345 349 342 336 337 340 344 348 348 347 347 349 350 352 360 352 354 359 366 366 367 368 368 368 368 369 369 369 369 369 369 370 368 365 366 366 366 366 366 366 366 366 367 370 370 370 371 372 371 370 370 369 369 368 368 368 368
355 356 355 358 358 359 357 359 365 360 366 366 360 363 358 361 355 361 353 348 352 353 349 346 343 338 340 338 343 348 344 346 342 338 341 341 347 349 349 350 352 362 356 351 350 352 360 367 368 369 369 369 369 369 370 371 371 370 371 369 365 362 366 367 366 365 366 365 365 366 368 370 370 370 372 372 372 372 371 370 369 368 368 368 368
358 361 359 359 361 360 355 361 364 362 365 363 365 362 359 357 359 364 359 355 356 351 348 346 344 337 341 339 343 343 342 346 350 353 340 339 343 348 349 350 353 355 356 353 351 350 350 361 370 370 370 370 369 369 369 369 370 372 371 366 364 365 366 367 366 366 366 366 366 367 369 370 371 371 372 373 373 371 370 370 369 369 369 368 368
359 364 365 360 357 362 361 363 366 370 368 360 359 360 361 359 358 355 361 360 354 352 349 347 342 340 338 333 341 344 349 346 354 340 339 339 339 346 344 342 346 351 354 353 353 352 351 351 354 356 358 368 371 370 369 369 368 368 366 363 367 369 367 368 368 367 367 367 366 367 367 369 370 372 373 372 372 370 370 369 369 369 369 369 368
364 366 365 364 359 361 361 365 365 363 362 355 353 356 355 360 360 361 354 355 357 355 350 344 346 344 351 343 341 340 343 345 341 339 346 338 339 342 339 339 341 340 345 345 349 354 354 353 354 348 350 356 366 371 369 370 370 367 365 367 371 371 371 370 369 369 368 368 369 369 369 369 371 374 373 372 371 370 369 368 368 368 368 368 368
365 364 366 367 364 361 364 366 365 368 362 361 359 357 360 362 362 360 355 352 351 352 345 344 344 337 337 338 339 338 352 346 336 337 338 338 338 343 338 342 344 342 340 341 340 347 349 353 351 349 350 352 359 368 370 369 367 365 365 369 369 369 371 370 370 370 369 370 370 370 370 371 373 373 372 371 369 368 368 367 367 367 367 367 367
364 363 367 363 361 364 366 364 365 365 364 366 363 370 364 357 358 356 364 354 353 352 345 340 342 335 330 335 336 338 342 341 338 339 341 339 337 337 339 335 337 339 342 340 343 343 344 349 353 353 353 356 363 365 367 366 366 366 368 365 367 370 372 372 372 372 371 371 372 373 374 374 373 371 371 369 368 369 368 367 366 366 366 366 367
362 367 366 363 364 361 363 366 363 367 365 361 362 360 361 357 355 357 356 356 355 355 348 347 337 341 347 335 332 332 337 336 338 338 337 338 336 337 338 336 338 340 343 345 347 348 348 351 352 354 353 357 363 368 366 365 362 367 367 367 367 372 371 372 373 373 372 373 373 375 374 373 371 370 370 369 369 369 368 366 366 366 366 366 367
360 364 364 363 361 361 361 368 360 368 363 364 358 357 356 356 357 364 358 347 350 349 360 349 344 344 336 336 336 328 328 331 338 343 339 338 343 336 340 337 338 341 343 343 345 349 348 352 353 353 356 365 367 365 364 362 366 369 371 371 365 364 368 373 371 371 374 374 375 374 373 372 370 369 369 370 370 369 367 366 365 365 366 367 367
358 360 363 361 362 362 363 362 364 363 364 360 359 359 355 354 360 367 359 352 351 355 356 356 351 354 345 345 334 329 331 333 336 341 346 340 343 337 344 337 339 342 341 343 346 349 346 346 349 350 351 359 364 366 366 367 363 376 368 370 369 368 369 370 369 371 372 373 373 372 372 371 370 369 369 369 369 368 367 366 365 366 366 367 367
356 358 359 363 362 360 359 363 364 363 367 364 361 361 362 356 363 360 358 361 357 357 353 355 357 357 352 354 335 330 334 337 334 327 341 353 350 344 343 338 344 346 345 346 346 346 354 350 347 352 363 365 367 367 366 363 370 367 375 368 373 372 370 370 372 371 370 372 372 371 370 371 370 369 368 368 368 367 367 365 365 366 367 367 367
356 357 362 363 361 362 361 365 368 364 368 362 357 358 357 357 365 362 359 362 362 353 353 350 351 352 352 350 351 350 344 336 334 341 330 337 345 345 339 339 340 343 345 343 346 349 351 355 347 351 352 360 364 363 363 360 367 370 376 377 372 373 373 371 369 369 369 372 370 369 370 370 369 369 367 367 367 367 366 365 365 366 367 367 366
355 355 360 362 364 364 366 365 362 360 364 362 357 357 359 367 367 364 365 367 357 353 354 354 347 347 357 350 352 352 346 343 347 339 335 330 332 344 342 343 342 343 345 348 350 357 350 349 353 351 352 355 359 364 365 367 366 367 368 365 368 371 371 369 367 367 369 370 368 369 370 369 368 368 367 367 367 367 366 366 366 366 366 366 366
357 359 359 363 368 363 363 364 366 363 370 362 359 357 361 365 363 361 362 360 356 365 356 348 350 346 348 350 357 351 344 344 347 348 341 335 336 338 339 350 353 357 347 347 351 352 350 354 361 355 361 356 361 361 361 361 364 365 366 365 376 372 372 368 366 368 369 365 368 368 369 368 368 367 366 366 366 366 366 366 366 366 365 364 364
355 360 362 362 362 362 364 360 362 361 364 358 358 359 364 361 364 361 361 362 363 357 356 357 360 357 354 354 353 352 347 344 345 350 347 341 334 336 338 340 337 343 353 349 354 353 351 357 354 359 356 358 359 361 360 360 362 363 364 366 373 371 369 370 369 368 366 364 367 368 367 367 367 366 366 366 366 366 365 365 365 366 365 363 362
355 358 360 361 359 362 363 361 360 363 363 361 365 360 361 360 360 358 363 358 361 362 361 359 356 353 350 346 345 347 341 344 344 346 344 341 337 340 341 342 339 338 341 348 354 352 354 359 353 352 361 357 359 361 362 362 366 364 365 365 367 371 369 370 368 366 366 363 364 366 366 367 366 366 366 366 365 364 364 364 365 365 364 362 361
352 355 355 358 359 359 362 359 359 362 359 363 361 359 361 361 362 360 360 361 361 361 358 354 353 349 349 349 347 346 348 345 344 346 345 345 338 339 341 341 342 343 345 349 355 356 356 359 355 360 360 355 358 360 364 365 362 367 367 365 364 371 368 369 367 365 366 365 364 364 365 365 365 365 365 364 364 363 363 364 364 363 363 362 360
349 353 353 354 357 357 357 356 357 362 362 360 365 364 360 362 360 363 362 360 361 359 354 355 357 351 352 353 349 348 346 348 346 345 349 349 345 335 341 343 336 338 343 346 344 359 354 352 350 356 356 356 357 356 355 357 356 360 368 366 363 368 369 369 367 365 365 363 363 364 364 364 363 363 363 363 363 363 362 362 363 363 362 361 359
351 349 351 353 356 356 358 356 361 359 364 363 364 364 365 364 365 364 361 362 361 360 363 361 356 354 352 347 348 348 348 347 344 344 343 343 343 337 336 344 342 338 344 347 351 345 347 349 349 352 354 353 354 357 356 356 357 362 365 362 358 360 365 367 370 368 364 363 364 363 363 362 362 363 363 363 363 362 360 361 361 361 361 360 358
349 348 351 350 353 354 355 356 360 360 363 364 365 363 364 362 362 362 364 364 364 361 360 359 356 353 352 350 352 350 349 351 348 344 344 342 341 340 339 336 340 341 344 346 345 341 349 350 350 350 354 356 353 354 356 356 359 363 365 360 356 356 360 363 367 370 367 364 364 362 363 362 362 362 362 363 362 361 359 359 360 360 359 357 356
348 352 349 351 350 353 355 354 356 359 362 361 361 361 360 360 360 359 357 363 358 360 358 357 353 351 351 350 350 348 349 350 350 349 344 343 342 345 342 342 335 333 342 344 345 345 347 345 347 352 352 355 354 355 360 362 360 364 366 359 356 353 356 359 362 364 365 364 363 363 362 362 361 361 361 361 361 359 358 358 359 358 357 356 355
349 353 349 348 352 352 353 353 356 356 358 360 361 361 361 358 360 358 358 358 358 357 357 356 357 357 353 351 350 352 351 354 354 356 353 356 345 347 349 348 344 337 338 338 340 345 351 351 347 349 360 359 361 364 363 363 364 362 356 356 357 355 353 353 356 359 360 359 358 360 361 361 360 360 359 358 358 357 357 356 356 356 355 353 353
350 349 350 346 347 365 352 351 353 356 356 357 358 358 360 360 359 359 360 359 358 360 362 360 359 358 357 354 352 354 356 354 352 352 353 352 352 350 350 353 348 342 343 336 338 347 347 350 349 349 359 355 360 364 364 359 362 362 358 355 351 357 353 350 352 354 356 356 357 359 360 359 358 357 356 356 355 353 352 351 352 352 352 351 350
351 348 346 347 345 349 352 353 354 354 355 356 357 357 358 358 358 359 361 360 359 358 361 363 360 359 355 353 353 351 353 353 357 353 352 353 351 352 351 352 355 348 349 342 338 346 353 348 351 355 354 356 361 356 357 360 358 356 354 352 352 357 356 355 352 352 352 352 353 355 356 356 354 353 353 352 351 349 348 347 348 349 349 347 346
345 348 349 348 346 348 349 350 350 353 352 353 357 356 357 357 357 357 357 358 359 358 359 359 359 356 354 353 353 351 353 356 356 357 355 354 354 350 349 354 353 352 351 348 343 342 354 355 354 355 357 354 358 356 355 356 358 359 356 353 353 356 359 355 352 352 352 351 351 351 351 351 350 350 351 349 347 345 345 344 344 344 344 343 341
345 344 347 348 348 349 348 350 349 348 351 351 352 356 356 356 356 356 356 357 357 358 359 358 359 358 359 357 356 357 359 357 356 356 354 352 350 349 350 353 356 357 355 351 346 345 353 359 357 356 357 356 353 358 355 357 354 356 357 354 355 351 351 352 353 350 349 350 349 348 348 347 347 347 347 346 344 343 342 339 337 337 338 338 337
346 344 344 345 349 350 350 349 349 349 349 350 352 352 355 355 356 358 358 356 358 358 358 357 359 362 359 355 356 357 358 358 356 354 354 352 349 349 349 355 355 355 357 353 350 347 344 352 356 359 360 359 352 357 356 355 354 357 354 355 356 353 351 355 351 351 348 349 348 347 346 344 343 343 343 343 343 340 338 335 333 332 334 333 332
348 346 345 344 343 346 349 351 350 350 350 350 352 351 353 355 355 355 356 354 353 358 359 359 361 361 359 358 357 356 356 352 352 353 354 351 353 355 354 354 352 353 356 357 353 348 347 349 355 353 356 358 357 356 356 359 358 356 355 355 356 357 356 354 355 351 345 347 346 345 344 343 341 339 338 338 338 336 334 331 329 328 329 329 329
348 345 347 345 345 344 345 348 353 351 350 352 351 351 351 354 355 354 353 354 355 355 357 359 360 360 358 356 355 355 355 354 355 356 355 354 351 353 352 355 353 354 356 360 354 350 353 348 354 355 358 353 357 360 360 358 356 355 357 359 358 354 353 354 353 351 347 346 346 344 343 341 338 336 335 335 333 331 329 328 327 326 326 327 328
345 345 347 347 347 348 347 346 347 351 353 354 352 349 349 352 355 355 355 354 354 355 356 355 362 357 356 356 357 356 356 354 354 354 351 352 353 352 352 352 355 356 359 360 358 359 354 351 353 357 357 355 358 359 359 355 355 356 356 357 359 353 351 353 354 352 346 345 346 344 341 340 337 335 334 332 331 329 329 328 327 325 325 324 324
349 348 347 349 350 350 350 349 349 349 349 352 352 351 350 350 350 352 354 355 356 355 355 356 358 358 356 355 355 357 356 353 353 357 354 355 353 355 352 352 356 357 354 354 358 357 353 351 350 350 352 354 351 354 358 357 355 352 351 354 357 353 350 350 353 359 358 354 352 346 340 338 336 333 334 332 331 329 328 328 328 326 324 322 321
350 349 352 352 349 348 348 352 353 352 350 351 352 354 353 351 351 352 352 352 354 355 356 357 356 353 353 354 355 357 355 355 355 356 356 355 358 355 353 353 356 353 350 350 353 354 353 349 349 350 349 352 352 349 354 359 356 354 350 350 346 351 350 348 349 356 357 357 353 348 345 343 338 335 330 331 331 330 329 328 328 327 326 323 321
351 351 351 352 350 350 353 351 352 355 356 354 353 354 355 355 353 353 354 354 353 355 355 351 351 351 351 352 354 357 357 356 358 356 356 354 354 356 355 357 357 355 353 352 349 351 351 350 348 348 349 349 350 356 359 355 352 353 353 349 342 342 343 346 350 349 353 354 353 352 346 342 339 335 331 332 332 331 330 330 331 329 327 324 324
352 353 354 353 352 349 349 353 351 352 354 355 358 357 356 358 361 356 354 353 354 353 354 354 354 353 353 353 353 356 363 368 368 367 362 362 359 357 358 356 352 353 353 349 350 348 348 350 348 350 348 349 350 350 350 351 351 350 351 347 343 346 347 345 348 352 352 350 352 351 347 344 340 336 335 334 332 332 331 332 331 330 327 324 324
355 356 355 354 353 352 349 347 349 349 354 359 360 358 361 362 357 357 354 356 356 356 356 352 353 354 356 354 357 365 363 365 364 365 366 366 365 361 359 356 354 352 351 350 350 350 349 347 347 346 345 345 345 347 348 348 352 350 347 346 342 345 345 345 346 351 352 353 351 348 348 347 342 338 336 333 336 337 329 329 328 327 325 325 325
353 355 358 355 354 352 350 348 348 347 350 356 355 340 344 355 360 354 353 356 354 356 356 352 350 352 353 355 354 361 363 365 363 369 368 367 365 365 366 365 362 353 350 351 352 353 351 349 347 347 345 345 346 348 351 352 354 351 347 347 346 345 342 339 336 345 356 353 351 347 350 349 344 339 339 338 333 329 328 326 328 327 325 325 324
354 355 354 352 355 353 351 351 351 352 353 359 337 340 344 347 359 360 356 353 354 356 354 352 353 354 353 357 357 357 353 353 353 360 363 365 364 364 363 363 364 365 364 357 353 352 351 348 347 347 346 345 346 348 349 348 349 348 349 347 345 345 343 341 339 339 347 362 353 350 349 354 352 350 347 338 330 328 326 325 326 324 324 324 323
351 349 350 354 352 354 356 354 356 351 353 349 337 340 340 341 347 363 352 351 352 354 352 350 350 352 354 355 358 358 353 358 359 356 356 359 363 363 362 361 362 361 350 349 355 358 354 351 350 349 349 348 347 349 352 351 354 347 349 349 348 347 346 344 345 345 350 355 349 348 348 352 354 351 334 331 329 328 325 326 326 325 324 323 323
347 349 353 351 350 350 351 354 353 351 343 335 332 334 336 339 341 350 356 353 352 355 353 352 351 351 353 355 354 357 353 355 354 356 357 356 355 357 357 358 358 363 364 356 351 353 359 357 353 351 352 354 352 352 359 357 351 348 348 349 351 349 349 348 348 349 352 358 349 347 344 348 352 344 331 329 328 325 323 323 324 325 323 322 321
347 347 346 347 349 353 355 352 347 345 336 327 327 330 329 332 337 350 352 355 353 353 353 352 351 352 354 357 355 352 350 352 356 359 359 358 355 356 355 355 355 355 355 356 358 358 357 358 356 355 354 354 354 355 355 356 354 353 353 352 348 347 348 354 354 353 354 357 351 346 337 346 351 345 335 328 326 325 325 322 323 324 323 322 321
346 346 347 348 350 352 352 347 346 345 332 320 321 322 324 326 334 349 352 354 355 355 356 356 356 356 356 352 349 349 349 350 348 342 348 353 351 351 351 352 354 355 355 361 349 352 361 357 356 355 355 356 352 357 354 351 351 355 356 349 348 347 347 346 345 351 352 342 340 340 337 338 350 349 340 330 329 325 325 322 323 325 323 322 322
340 340 342 345 347 349 350 349 346 336 325 319 316 316 317 320 335 348 352 354 354 354 354 354 352 353 354 352 350 348 347 347 337 326 334 351 347 348 349 349 351 351 352 356 347 341 340 338 338 338 336 333 332 330 329 332 344 352 349 346 344 344 343 339 341 345 346 334 331 340 338 336 342 347 338 331 330 327 322 320 321 324 324 323 322
333 333 333 333 333 337 346 347 341 328 323 319 314 313 314 317 332 347 352 352 351 350 350 350 352 351 352 356 354 346 341 333 324 324 328 346 346 346 346 346 346 348 349 353 354 355 340 334 334 333 333 333 334 335 336 334 335 347 347 344 346 346 342 342 340 342 341 333 333 335 337 337 341 341 339 334 336 331 324 323 322 321 322 321 320
331 331 332 328 329 330 331 332 337 326 323 321 314 313 313 314 328 342 345 348 346 347 348 348 350 348 347 346 344 337 332 327 318 320 323 337 342 342 343 341 342 341 345 342 342 344 348 349 349 347 348 347 350 347 348 349 348 354 349 345 346 345 343 341 341 339 332 329 331 335 334 337 333 330 335 332 330 335 328 328 325 320 322 325 323
Wind_Speed
1 2 1 2 2 3 4 5 4 5 5 6 6 6 6 6 6 6 6 7 8 7 7 8 8 9 8 6 5 4 5 6 5 5 5 5 5 8 14 14 13 12 12 10 10 9 8 8 7 6 6 7 8 8 8 8 9 9 9 10 11 11 11 12 12 12 12 12 12 12 12 12 12 12 12 12 12 13 13 13 13 13 14 14 14
2 2 3 3 4 4 4 5 6 5 5 6 6 6 6 5 6 7 7 7 6 6 3 3 2 1 5 5 4 5 6 7 6 5 5 5 5 5 12 11 12 12 11 11 10 9 9 8 8 7 7 8 9 8 9 10 10 9 9 10 11 12 12 12 12 13 12 12 12 12 12 12 12 13 13 12 12 13 14 14 14 14 14 14 13
2 3 4 4 4 4 5 5 6 8 7 6 7 7 6 4 5 3 4 4 5 5 4 2 2 3 6 6 6 4 6 7 6 6 6 5 5 4 6 12 11 11 12 12 11 10 10 9 9 8 7 9 10 9 11 10 11 10 10 10 11 12 13 13 13 13 12 12 12 12 12 13 13 13 13 13 13 13 13 14 15 15 15 15 12
2 2 3 4 4 5 5 6 5 3 4 4 5 4 2 3 5 2 4 5 5 5 5 4 4 5 7 7 5 4 6 7 7 6 5 5 5 5 5 6 11 12 13 14 13 12 12 11 10 9 8 10 11 11 11 11 12 12 12 11 11 12 13 13 12 13 12 12 12 12 12 13 13 13 12 12 12 13 13 14 15 15 15 16 13
3 3 2 2 3 4 6 2 2 3 2 3 1 1 2 2 3 3 4 4 5 6 6 3 3 5 0 6 5 5 5 6 7 7 6 5 5 5 4 4 4 10 12 12 12 12 12 11 11 11 10 10 13 12 12 13 14 14 14 13 12 12 13 13 13 13 12 11 11 12 13 13 13 13 12 10 10 11 13 13 14 15 15 15 14
4 4 2 2 4 5 4 4 4 3 0 1 0 2 3 2 0 2 3 4 3 5 6 7 6 4 3 2 6 4 3 6 7 8 6 6 5 4 5 4 4 4 5 10 11 11 11 12 12 12 11 12 12 12 14 15 15 15 15 14 13 12 12 13 14 14 12 10 9 10 11 11 11 11 10 8 9 10 12 13 14 15 15 14 12
3 2 1 3 6 1 1 3 3 1 0 2 1 2 3 3 1 4 3 4 4 4 3 5 6 7 4 1 1 1 7 7 5 7 7 6 5 6 5 5 5 4 5 5 7 10 10 12 13 12 12 12 13 14 15 15 15 15 16 14 14 13 14 14 13 12 11 10 10 11 11 11 10 10 10 9 8 10 11 12 13 14 14 13 11
2 2 3 4 3 2 4 1 1 1 2 1 1 1 1 4 3 1 3 5 4 5 4 5 7 5 2 2 1 2 2 6 5 6 7 6 5 6 6 5 5 6 6 6 5 6 12 13 14 13 12 12 13 14 16 17 15 15 15 14 14 14 14 13 10 10 10 10 11 11 11 12 12 13 13 11 11 11 10 10 11 13 14 12 10
4 4 3 4 1 1 1 2 0 1 2 2 1 1 2 3 3 1 2 4 4 5 6 3 4 3 3 3 3 3 3 3 4 6 5 7 8 6 6 6 7 8 7 6 5 5 8 14 14 14 13 13 12 14 16 17 15 14 13 12 11 12 13 13 12 12 12 11 11 12 11 12 13 14 14 13 12 12 12 11 11 11 12 13 10
5 3 3 1 2 1 2 1 1 0 1 0 1 2 1 3 2 3 3 3 4 5 6 5 4 5 1 3 1 4 2 2 5 6 6 6 7 8 7 7 7 8 7 6 6 6 6 9 12 12 13 12 11 12 15 15 15 13 12 12 13 12 12 12 13 14 14 13 12 12 12 13 14 14 14 13 13 13 13 13 12 11 11 12 9
4 3 1 0 1 2 2 0 2 0 0 1 3 3 3 3 2 3 3 4 5 6 6 4 5 3 1 4 4 2 2 0 4 7 8 8 8 8 7 7 7 7 6 6 7 7 7 6 6 6 8 13 11 14 15 15 15 14 13 14 14 12 10 10 11 13 13 13 13 13 13 14 15 15 14 13 13 13 13 12 12 12 10 10 8
4 3 2 1 1 1 2 1 0 0 1 0 1 3 3 2 2 3 4 4 4 5 3 4 4 2 1 0 3 2 1 1 1 3 5 4 6 6 6 6 6 5 6 6 7 7 7 6 5 6 6 8 12 13 15 15 14 14 13 13 10 10 9 10 11 12 13 13 13 13 13 15 15 14 12 12 12 12 11 10 11 11 11 10 8
3 3 3 2 1 1 2 0 1 1 2 2 2 3 3 1 2 2 3 3 3 5 3 0 1 2 2 1 4 4 3 5 4 4 4 5 2 5 5 3 1 2 4 5 6 6 6 6 6 5 5 6 7 12 14 13 13 12 12 9 10 12 12 12 12 12 11 12 13 13 13 13 13 12 11 9 9 11 10 9 10 10 10 10 8
4 3 3 3 2 1 1 1 0 0 1 2 2 2 3 2 2 3 1 1 2 2 6 5 1 1 1 1 2 4 3 3 3 3 1 2 4 4 4 6 4 6 3 3 2 1 3 5 4 3 4 5 3 3 5 6 7 11 11 12 13 13 12 13 12 11 11 12 12 12 12 11 11 11 8 7 9 10 10 9 9 9 10 10 8
4 4 3 3 3 2 2 2 2 2 1 1 2 3 3 3 3 3 3 2 2 2 4 2 2 3 1 3 1 1 2 3 3 2 2 2 3 4 3 5 5 5 6 4 3 0 1 3 4 3 4 4 2 2 3 4 6 10 11 11 11 11 12 13 11 10 11 12 12 11 10 10 10 9 7 7 8 10 11 10 10 9 9 9 8
5 4 3 3 3 3 2 2 4 2 3 2 3 3 3 4 3 1 1 2 3 3 2 3 3 4 3 1 1 3 1 2 1 3 5 2 0 2 1 3 6 4 3 3 2 1 2 3 4 4 4 1 2 3 5 5 8 13 13 10 10 10 11 12 12 13 13 13 11 9 8 8 8 7 7 8 9 10 11 11 10 9 8 8 7
4 5 3 5 4 3 2 1 1 3 2 2 2 3 4 4 2 2 0 1 2 1 2 4 4 1 2 1 2 4 1 2 1 1 3 3 4 4 2 2 4 3 3 1 2 1 2 3 1 3 4 2 3 3 2 2 2 3 7 10 10 11 11 12 12 11 10 10 9 7 6 6 6 7 8 9 9 10 10 11 11 10 9 8 7
5 5 3 4 3 3 3 2 2 4 3 3 2 2 4 4 4 3 1 1 0 2 3 3 3 3 1 1 4 1 0 2 2 1 5 1 3 1 1 3 4 3 2 1 0 1 2 1 3 5 2 2 1 1 3 3 3 2 4 7 13 12 11 10 9 8 7 7 6 6 6 5 6 8 8 10 10 10 11 11 11 11 9 8 8
6 4 4 4 4 4 3 3 3 2 2 3 2 3 0 2 2 2 2 1 2 2 2 3 4 1 4 4 3 1 3 3 0 0 2 4 3 3 3 1 2 3 3 2 2 0 2 3 4 3 3 2 1 1 3 3 3 2 4 6 8 7 6 5 4 5 6 6 6 5 6 6 7 8 8 9 10 10 11 11 11 11 11 10 9
5 5 4 4 4 5 4 3 3 2 3 4 4 1 0 0 2 2 2 1 1 0 1 2 3 3 3 4 3 2 1 3 2 3 3 0 4 5 2 3 2 1 1 2 1 2 2 2 1 1 2 2 2 2 2 2 2 2 4 4 6 4 2 3 4 5 6 5 5 4 5 6 7 7 7 8 9 10 11 11 12 12 14 13 11
3 6 5 4 3 4 3 3 3 3 3 3 3 4 2 0 2 1 1 0 0 0 0 3 2 2 3 2 3 2 3 2 3 3 1 1 2 1 2 4 3 2 0 1 3 2 1 0 0 0 2 2 2 2 2 3 3 3 5 6 5 3 2 3 4 5 4 4 4 4 5 6 6 7 7 8 9 10 11 11 12 13 14 14 13
4 5 5 5 4 3 3 4 3 4 3 3 2 3 3 3 2 2 1 1 1 0 1 2 1 2 1 1 1 2 2 2 2 2 2 1 1 2 3 3 5 5 4 1 3 2 1 1 1 1 0 1 2 2 2 3 3 4 5 4 4 3 4 4 4 4 3 3 3 4 5 5 5 6 6 7 8 9 10 10 11 13 13 14 14
6 4 4 5 5 4 4 5 4 4 3 3 2 3 4 4 4 3 2 0 1 1 2 2 3 3 4 4 5 4 4 1 2 2 1 1 1 2 2 2 2 4 3 2 1 1 1 3 2 0 1 2 2 3 3 3 4 5 4 3 5 5 5 4 4 4 4 2 2 3 5 6 6 6 7 8 8 8 9 9 10 11 12 13 14
5 5 5 5 5 5 5 4 5 3 4 2 1 3 1 1 1 4 3 3 1 0 1 3 4 3 3 3 2 4 1 4 5 4 5 3 3 2 3 2 3 2 3 1 0 2 3 3 1 2 4 3 2 3 4 3 4 9 7 5 7 6 5 5 5 6 4 2 1 2 4 5 6 7 8 9 9 9 10 10 10 10 11 12 13
6 7 7 7 5 6 5 4 4 3 3 3 2 3 1 1 0 2 2 3 3 3 3 4 3 3 4 4 3 3 2 2 3 4 3 5 4 1 3 1 3 3 3 1 2 2 2 2 2 2 4 3 3 3 4 4 4 7 7 4 8 7 6 6 7 7 5 4 1 0 2 3 4 5 7 8 8 9 10 10 11 11 12 12 12
6 7 7 7 5 6 5 5 4 4 4 3 2 2 2 2 2 2 3 4 4 4 4 2 3 4 4 5 4 2 2 2 4 5 5 4 3 4 2 2 2 4 2 1 1 1 2 3 4 4 3 3 4 4 5 4 4 8 6 5 6 7 7 8 8 7 6 4 3 1 2 2 3 5 7 7 8 9 10 10 11 12 13 13 12
5 5 6 7 7 7 7 6 5 5 4 3 3 3 2 2 1 1 2 1 3 3 3 3 4 4 3 4 4 3 4 3 2 4 5 5 4 4 4 2 2 2 1 1 1 1 3 3 4 3 3 3 4 5 5 5 6 10 9 5 4 7 8 10 10 9 7 5 3 2 2 1 2 4 6 7 8 9 10 10 12 13 14 14 14
5 5 6 6 6 8 7 7 5 5 5 4 3 3 3 3 3 3 3 2 2 3 4 4 5 5 5 4 3 4 4 3 3 2 5 5 5 4 5 3 2 3 2 1 1 2 4 3 2 2 4 5 6 5 7 7 6 8 8 3 3 4 9 11 12 10 7 4 4 3 2 2 2 4 5 7 8 9 10 11 12 14 14 14 14
7 5 6 5 5 8 8 8 6 6 5 4 4 4 3 4 3 3 4 4 3 3 4 5 4 3 3 4 4 5 5 4 3 2 2 2 5 5 6 6 5 1 1 1 1 1 2 2 1 1 2 4 5 6 6 6 6 6 4 2 3 4 9 14 14 10 7 6 4 3 2 2 2 5 6 7 7 9 9 11 12 12 13 14 15
8 7 6 7 5 5 7 6 7 6 7 6 5 5 4 4 4 4 4 4 4 4 3 3 2 2 3 4 3 2 1 1 2 3 3 3 2 4 5 3 5 4 4 2 3 2 2 3 1 2 1 4 4 4 4 5 7 7 4 3 3 5 11 15 15 9 8 7 5 5 4 3 5 5 6 6 7 8 9 10 10 11 12 13 14
7 7 6 8 8 6 6 5 6 6 7 6 7 6 5 4 4 4 3 4 4 5 4 3 2 3 4 4 4 4 3 2 1 2 3 4 4 3 1 5 5 5 5 4 0 3 2 1 2 2 3 3 3 1 2 3 4 4 3 4 4 7 11 10 13 7 10 8 7 6 5 4 5 5 6 6 7 8 9 9 9 9 10 12 13
7 5 6 7 8 8 6 6 5 6 6 6 6 7 6 6 5 5 4 4 5 6 6 4 3 4 4 4 4 5 4 2 2 2 3 3 4 5 4 5 5 5 5 5 4 6 3 2 2 3 4 3 3 3 4 5 4 5 3 3 4 7 6 6 3 8 10 9 8 8 6 5 4 5 5 6 7 8 8 9 9 9 10 12 13
7 7 5 5 7 8 8 7 6 4 6 7 5 6 7 6 6 5 5 4 5 6 5 5 4 4 3 2 3 3 3 2 3 2 3 5 5 6 4 0 2 2 4 4 4 5 3 3 2 3 3 3 2 2 3 3 4 5 5 3 4 5 4 3 2 11 11 10 9 8 7 7 6 5 5 5 7 8 8 8 9 8 9 11 13
7 8 7 5 5 8 7 8 7 7 6 7 8 7 7 7 7 6 6 6 4 5 5 5 5 4 3 4 5 4 3 2 3 4 5 5 4 1 3 1 1 3 3 4 5 3 3 2 2 3 1 1 1 1 2 3 4 4 5 4 5 4 4 3 4 4 8 8 8 8 8 7 6 5 4 5 8 8 8 8 8 8 9 10 12
6 7 7 8 7 6 6 6 8 8 7 7 7 7 7 8 8 7 7 6 6 5 6 6 5 4 5 5 6 5 4 5 4 5 4 4 1 1 1 1 1 1 3 4 3 3 4 4 3 1 0 1 1 2 2 1 2 3 3 3 3 4 4 3 4 4 6 9 9 8 8 8 6 5 3 4 9 9 8 8 8 7 8 8 9
10 7 4 7 6 8 8 6 7 8 8 7 8 8 8 8 8 8 7 6 5 5 6 6 7 6 7 6 7 6 4 3 3 1 1 2 2 3 3 0 1 0 1 2 3 3 4 2 2 1 1 1 3 2 2 2 2 3 3 2 2 4 3 4 4 4 4 7 8 8 9 8 7 5 5 5 8 9 8 7 7 7 8 7 7
4 5 9 7 6 8 9 10 8 7 6 6 7 8 7 6 7 8 7 6 6 5 5 6 7 8 7 7 5 4 4 4 3 3 2 2 2 2 1 1 1 1 1 2 1 2 3 3 2 2 2 2 3 3 2 2 3 2 2 2 1 2 3 3 4 4 5 6 7 8 8 8 6 5 6 7 8 9 8 7 6 6 7 7 8
5 5 5 5 10 9 6 9 10 9 7 6 6 6 7 6 6 6 6 7 7 8 8 6 5 5 5 5 5 4 3 4 3 3 1 2 2 2 3 2 1 2 2 1 1 1 2 2 2 2 2 3 2 3 3 2 2 3 3 2 1 2 2 2 1 1 3 3 3 3 4 5 5 6 7 7 7 9 8 7 6 6 6 6 7
4 3 5 4 6 5 10 12 7 7 8 8 6 6 5 4 5 5 5 6 7 7 7 5 4 9 10 8 3 4 4 4 3 3 3 2 3 3 3 2 2 2 2 3 3 3 3 3 2 4 4 4 4 4 3 3 2 3 2 3 2 0 1 1 1 2 2 3 3 5 6 6 7 5 6 6 6 8 8 6 5 5 5 5 7
5 5 5 3 4 3 6 10 11 6 5 6 7 6 5 4 4 4 2 1 1 2 6 7 5 6 6 7 8 6 5 4 3 3 4 3 3 3 3 3 2 3 3 3 2 3 3 3 4 4 4 4 3 4 2 2 1 1 2 2 3 3 2 1 3 3 3 2 4 3 3 5 4 4 5 4 4 7 8 6 5 5 5 5 6
2 4 4 7 5 3 0 2 7 10 6 6 3 3 3 2 2 2 1 1 2 1 1 2 2 4 5 4 7 5 3 5 7 5 5 5 3 4 2 3 3 3 3 3 4 4 4 4 4 4 4 5 5 4 3 3 5 5 3 2 2 3 3 2 3 4 3 2 2 4 5 5 5 4 3 3 3 5 4 3 4 5 4 4 6
2 2 2 0 4 4 2 1 5 9 9 3 6 9 5 2 2 2 2 2 3 3 3 3 2 4 4 4 5 6 5 5 6 7 6 5 5 4 4 4 4 4 4 4 4 4 5 5 6 5 5 6 5 4 4 4 3 1 2 3 2 2 1 3 3 3 4 2 3 3 5 5 5 4 4 4 4 4 3 1 1 2 3 3 4
0 0 0 1 4 5 6 5 5 6 10 1 8 8 7 4 3 3 4 4 3 4 5 4 4 4 4 4 4 6 5 5 3 5 7 7 8 8 7 9 7 6 5 5 5 5 5 6 5 4 5 6 6 4 4 4 2 4 4 3 4 1 1 1 4 4 2 5 3 4 5 6 6 6 5 5 5 5 3 3 4 3 3 3 4
1 0 1 3 4 4 4 7 8 9 9 4 7 7 7 7 4 3 5 5 5 5 5 6 5 4 2 1 3 1 4 4 6 3 4 8 8 10 10 9 10 11 9 6 6 5 4 5 5 6 4 6 5 4 5 3 4 3 3 3 4 4 3 3 2 3 3 5 5 4 6 5 6 6 6 6 5 5 4 6 5 4 4 4 4
2 2 2 1 2 4 4 2 2 4 2 2 2 3 5 7 7 5 6 5 6 6 5 5 5 4 3 2 2 4 3 2 2 4 4 5 9 11 11 11 11 11 11 10 8 7 4 5 6 6 7 5 5 7 4 3 2 3 3 4 4 5 6 5 6 4 5 4 3 3 4 4 6 6 5 5 6 4 5 5 6 5 5 4 4
1 2 2 2 2 2 2 3 5 6 4 8 7 7 5 1 3 2 3 4 4 4 5 4 4 4 4 3 2 3 4 2 1 4 5 6 5 4 4 4 5 6 8 10 12 12 9 7 6 8 7 4 7 5 4 3 3 5 4 6 5 5 5 6 5 6 5 4 6 3 2 4 5 5 6 5 5 5 5 7 8 5 5 5 5
2 2 2 3 3 3 3 5 1 1 2 8 8 6 5 2 2 4 3 4 5 5 5 4 3 4 3 3 2 2 1 0 1 3 4 4 3 4 3 4 4 3 3 3 4 4 5 6 6 8 8 6 7 6 3 2 3 4 6 5 4 3 3 5 5 4 5 4 4 4 5 3 5 6 6 6 6 5 4 6 8 6 5 5 5
3 3 3 2 2 3 3 4 4 1 9 20 16 13 8 3 2 4 4 4 3 3 5 5 4 2 3 4 2 2 1 1 6 7 7 5 4 3 3 4 4 4 5 5 6 6 6 6 6 6 6 4 4 5 3 3 4 5 3 1 1 2 4 4 6 3 5 1 2 4 3 3 4 7 5 5 6 5 4 4 6 7 6 5 5
7 8 6 6 5 4 2 2 2 8 8 15 15 15 13 12 4 3 3 4 4 3 2 4 5 4 4 4 4 2 1 3 6 5 6 6 2 3 4 4 4 5 6 4 6 9 12 13 12 10 9 10 10 9 7 5 4 2 1 3 6 4 5 6 6 5 5 3 0 2 3 2 3 6 5 6 7 5 5 5 4 6 7 6 5
9 8 7 8 9 9 6 4 9 7 6 12 15 16 16 16 9 2 1 2 3 4 3 3 4 4 2 4 6 4 5 4 6 6 7 4 2 2 3 4 6 6 5 4 4 4 3 4 6 8 9 10 11 10 8 8 8 4 4 6 3 3 7 6 6 5 2 2 3 2 3 4 1 2 6 4 3 2 5 4 5 5 6 5 5
8 7 8 8 9 10 11 12 16 11 6 9 15 16 17 18 12 5 4 4 5 4 3 1 4 4 6 10 14 10 7 4 5 5 6 6 1 2 1 1 4 6 5 5 5 7 7 6 4 5 6 7 7 5 5 8 11 11 7 8 6 6 7 6 6 4 3 5 3 2 5 3 2 1 5 4 3 1 3 5 5 5 4 4 4
Wind_Direction
142 178 243 264 251 230 226 232 233 232 212 218 225 227 221 228 233 237 239 234 237 250 243 230 210 202 195 210 203 201 142 143 146 151 146 159 175 185 182 181 180 180 184 190 199 206 216 219 224 237 245 255 262 266 269 269 270 272 274 279 283 286 287 288 288 288 287 286 286 285 284 282 278 275 273 271 272 271 268 263 260 257 258 257 260
191 192 199 230 233 244 236 238 233 233 217 221 229 226 232 237 237 230 227 222 207 229 243 222 307 207 187 205 198 185 139 149 153 150 153 161 175 192 189 187 183 182 185 192 202 211 220 225 228 232 242 254 261 266 269 272 273 275 280 283 287 288 288 287 286 286 285 284 284 285 285 283 278 274 271 269 267 266 265 264 262 257 251 251 251
237 195 197 214 235 239 249 241 247 222 197 207 221 226 235 239 265 273 311 299 325 305 296 271 199 245 193 196 207 160 161 146 148 149 155 172 172 185 193 190 190 189 190 194 200 212 220 225 226 227 234 247 256 259 263 270 274 274 275 273 273 277 281 282 282 281 280 279 280 280 281 282 280 277 273 269 267 264 265 265 264 260 258 253 246
218 236 201 212 228 233 240 240 224 236 224 235 231 229 246 289 256 313 302 314 311 305 300 304 298 260 173 194 196 170 166 144 145 155 162 167 167 179 187 189 195 199 198 195 198 207 216 221 224 226 230 242 250 251 257 262 267 269 265 263 262 264 268 273 274 273 274 275 277 278 278 279 279 278 276 273 273 273 267 262 260 260 255 252 248
222 233 234 246 242 242 227 207 255 251 212 223 156 315 360 336 338 330 330 317 334 318 309 243 251 299 59 184 194 180 166 146 143 157 168 160 170 178 181 195 204 207 209 204 203 207 216 225 228 227 226 236 247 250 253 257 259 261 261 260 259 260 263 266 272 275 274 274 275 279 280 280 281 280 277 275 274 273 266 265 262 260 258 254 250
208 229 252 286 279 234 184 188 243 233 64 346 71 11 2 316 285 360 320 319 312 313 316 311 303 292 285 214 174 176 166 152 156 159 157 163 167 167 181 190 199 218 219 219 214 214 218 225 228 226 224 231 244 247 249 250 254 259 262 263 265 264 264 269 273 277 279 280 278 279 279 279 281 282 285 285 278 267 261 262 262 260 258 255 250
213 214 318 276 255 182 316 221 219 154 201 152 79 3 354 303 332 351 320 311 313 296 298 276 277 283 280 308 211 180 141 179 162 150 162 164 152 169 177 186 190 208 219 217 225 221 225 233 234 230 225 225 236 244 249 250 251 255 261 266 269 270 269 272 276 281 287 293 298 304 302 300 302 306 306 301 279 266 259 257 261 263 261 255 240
188 199 235 269 217 151 249 283 246 88 57 305 88 281 331 300 306 277 327 307 312 304 304 305 274 246 280 165 222 46 93 122 117 160 157 152 156 171 177 183 187 199 207 204 212 220 220 227 232 233 228 226 234 244 249 249 246 248 253 256 260 268 271 274 279 289 297 303 307 313 316 317 321 319 313 306 296 286 279 274 271 269 271 266 247
209 205 228 249 55 348 289 279 166 66 24 260 206 207 175 265 265 248 190 265 288 291 302 264 265 261 225 52 75 78 46 97 124 156 139 154 168 175 179 182 199 199 197 200 206 220 223 223 226 226 225 222 224 237 246 251 251 248 245 246 262 278 286 299 309 309 306 307 311 315 318 320 319 316 310 305 302 299 298 294 284 278 275 273 257
202 194 230 234 96 283 302 297 126 91 327 284 232 273 269 221 235 271 241 250 283 283 288 300 286 232 113 145 104 74 84 74 77 141 161 171 167 176 184 188 195 204 200 195 198 210 220 225 221 228 231 226 218 226 239 251 259 262 265 275 286 285 288 295 303 307 309 312 315 318 319 319 315 310 307 307 309 309 307 303 296 286 278 275 265
177 197 196 45 79 275 281 258 96 86 60 17 347 314 318 301 238 284 291 252 252 274 268 272 285 5 89 210 109 126 92 60 133 160 182 178 176 178 179 192 198 197 202 199 201 205 213 212 212 221 232 235 218 214 227 238 247 256 266 275 277 281 291 299 302 302 303 307 311 315 318 315 310 308 309 316 319 314 309 306 303 300 288 275 261
167 168 150 159 212 258 292 259 122 160 97 12 332 322 293 327 318 292 306 318 307 285 289 316 324 334 269 322 152 180 172 170 263 201 195 208 195 181 187 192 205 200 196 205 203 205 209 210 207 212 225 235 228 216 218 225 236 245 255 270 284 294 298 301 301 299 299 304 307 310 311 310 306 307 317 321 316 308 308 310 309 305 301 292 275
145 145 149 183 170 260 359 313 45 157 147 185 242 284 296 233 313 315 295 325 311 320 322 350 154 345 17 31 200 217 174 211 209 224 236 237 230 186 205 190 268 286 238 215 204 209 197 207 215 213 223 231 229 219 220 224 234 246 259 271 285 290 294 296 294 293 295 299 301 302 303 301 305 314 317 315 308 307 316 320 318 316 311 305 295
160 163 189 164 199 179 275 239 87 152 172 188 233 264 297 346 335 342 304 301 281 321 324 360 17 154 288 329 287 329 267 208 239 280 238 152 87 82 105 121 178 201 244 321 343 329 226 221 222 235 236 235 223 189 217 226 241 249 255 263 268 275 283 287 288 290 292 295 296 297 299 305 311 310 303 309 316 318 325 329 330 327 322 314 309
169 172 185 168 197 163 222 240 204 175 198 263 289 287 281 273 292 231 316 322 299 293 337 38 19 309 143 79 294 214 309 356 350 336 138 49 19 101 171 170 147 121 127 120 140 350 324 172 199 223 240 247 184 156 203 221 231 242 246 251 261 270 278 283 284 286 293 299 302 308 315 315 304 295 307 327 326 328 330 334 334 333 329 322 323
184 176 183 170 168 200 228 203 213 191 178 201 224 257 264 267 267 98 115 358 358 313 317 35 54 25 356 184 239 129 61 330 339 317 328 102 10 346 74 52 57 33 60 139 184 216 222 178 176 216 230 230 154 168 184 198 232 250 254 253 255 267 274 281 291 303 309 312 312 316 312 297 293 310 328 333 336 334 333 333 334 334 333 331 331
186 193 184 174 182 174 213 205 220 227 191 210 224 229 241 248 211 156 152 154 357 315 306 9 5 46 166 360 355 32 172 260 327 271 350 13 343 307 3 79 85 94 87 6 31 356 337 7 327 235 239 237 214 202 210 255 243 204 234 250 258 261 270 278 288 293 295 292 292 294 293 297 314 327 341 339 341 336 335 333 334 336 338 337 335
188 201 181 164 186 172 208 231 253 241 209 201 212 256 259 214 189 162 124 107 159 23 331 324 351 335 54 163 174 168 181 248 81 317 312 304 327 321 209 164 145 134 126 147 268 337 33 359 355 3 60 158 205 237 240 232 236 258 188 213 226 232 239 242 242 252 267 277 289 302 316 320 329 340 347 342 342 340 337 336 336 337 340 342 339
190 181 178 172 176 178 190 215 225 230 233 204 224 239 202 58 99 99 118 53 64 29 333 312 334 352 9 17 50 89 186 115 181 148 357 319 342 331 359 64 127 136 162 184 180 70 15 16 3 28 31 22 48 344 325 286 290 246 220 217 200 208 213 233 258 275 289 303 316 325 329 337 342 347 350 343 343 341 340 339 338 338 340 345 343
175 181 171 196 172 185 183 209 215 236 234 203 221 186 207 354 100 175 130 110 74 92 292 330 52 295 339 10 1 68 4 55 106 151 162 169 316 331 342 11 30 333 146 151 149 70 46 355 360 48 3 10 28 42 334 328 310 318 297 235 200 206 216 261 276 283 298 313 321 333 340 349 351 351 350 347 343 343 342 339 340 341 340 343 344
182 172 185 181 165 170 201 202 207 236 230 224 223 184 160 139 87 69 138 318 172 236 107 322 8 294 358 335 0 2 40 56 70 66 119 94 296 335 307 322 346 319 301 176 131 162 108 45 185 326 10 337 352 16 329 320 313 293 272 241 214 172 216 262 266 278 297 303 319 342 354 355 354 354 352 348 345 347 346 341 340 345 342 342 345
194 183 171 170 175 184 202 204 220 240 226 240 249 158 155 158 195 197 203 138 184 265 324 272 239 265 256 234 331 339 28 53 42 90 66 105 194 282 301 345 344 297 304 299 170 123 71 184 234 250 261 300 316 324 303 309 305 291 276 232 155 168 218 244 259 271 273 292 330 352 357 356 356 356 350 345 346 351 349 344 343 347 346 344 346
182 176 180 167 182 191 206 204 212 225 225 242 170 166 182 194 204 191 172 146 280 13 343 324 343 326 294 273 258 246 208 172 205 210 129 95 38 313 313 300 285 312 296 350 112 108 209 255 228 268 230 260 269 278 281 280 283 277 286 206 189 197 214 227 239 248 252 268 332 1 358 356 358 355 347 342 350 354 352 351 348 349 352 350 348
174 173 195 187 181 196 206 208 212 204 197 195 235 218 143 139 191 191 193 181 172 306 309 305 303 290 293 291 258 239 217 166 197 158 143 175 156 221 255 300 334 265 280 39 114 192 240 250 241 206 246 254 267 258 264 276 278 284 294 235 204 205 211 224 223 232 233 246 320 3 7 3 357 350 344 343 350 355 355 354 351 351 357 358 354
189 179 193 193 178 189 208 215 207 189 200 202 197 151 148 210 173 190 182 178 195 207 228 246 249 249 262 269 266 310 321 206 158 156 115 132 146 189 266 192 233 288 286 261 242 282 240 259 258 238 242 267 271 289 284 277 272 285 298 202 196 203 214 224 222 224 220 217 241 346 31 12 355 340 342 341 346 353 358 353 350 352 358 3 0
191 186 192 192 184 185 193 215 204 193 192 173 183 183 176 180 209 188 209 204 199 200 199 221 266 266 262 282 282 224 251 179 184 126 153 149 178 193 228 318 205 248 283 329 280 355 313 245 235 230 230 246 261 272 288 276 285 277 258 223 219 217 215 223 224 218 208 190 194 138 74 34 353 349 349 347 352 0 0 358 357 358 0 1 360
211 203 191 198 187 186 189 204 199 193 186 182 192 222 190 174 192 215 292 189 214 193 210 224 247 263 260 231 238 281 281 276 217 186 170 193 189 174 160 234 320 305 311 301 346 205 232 298 258 224 220 237 250 256 259 268 260 269 272 211 226 223 221 230 228 215 207 194 155 119 90 53 8 359 3 358 1 4 5 6 3 4 8 1 356
218 224 210 191 183 184 191 199 199 187 187 181 194 209 219 193 201 227 258 262 242 214 228 239 255 267 281 288 296 273 261 274 279 250 175 205 193 176 175 165 181 296 332 333 337 279 238 251 307 247 211 221 238 233 246 255 263 255 250 198 223 228 228 235 235 217 193 152 128 109 106 58 25 24 18 11 11 9 11 12 10 11 11 7 1
209 207 213 206 178 183 188 193 188 193 187 191 196 212 211 214 209 208 222 248 257 245 239 221 233 254 290 289 274 256 257 260 278 291 307 167 191 197 193 183 163 134 267 313 280 270 297 274 309 289 198 216 235 230 232 228 243 261 276 235 205 226 227 227 234 217 165 134 131 130 116 95 56 45 39 28 21 13 13 19 19 15 15 13 5
205 207 192 204 202 178 185 191 191 187 192 192 195 210 212 210 208 212 219 222 249 269 262 230 247 260 274 276 285 294 278 300 282 306 321 311 262 207 211 187 149 166 179 184 262 243 268 297 354 320 306 283 268 273 241 252 256 256 266 274 223 238 229 226 230 203 144 143 146 132 126 92 63 57 49 44 35 24 22 27 27 22 22 19 11
196 210 194 192 197 201 174 188 195 196 190 191 193 201 210 216 215 211 223 212 226 250 261 256 262 272 275 272 279 287 290 291 318 328 329 319 301 276 223 164 177 169 166 153 172 285 203 251 291 318 318 281 262 266 292 297 278 280 281 288 287 257 239 234 236 163 140 141 142 130 113 94 68 56 54 58 52 41 33 31 30 26 23 27 22
223 203 197 191 191 193 196 201 183 188 201 198 189 196 197 204 209 216 229 216 221 228 239 234 247 240 245 261 275 268 265 268 320 328 298 302 300 300 277 195 203 183 158 160 184 246 273 233 258 289 290 292 274 339 324 323 335 9 350 323 303 290 264 257 243 143 148 145 145 130 122 102 82 66 62 65 63 53 42 35 30 27 28 31 30
210 229 198 188 193 193 196 196 204 195 188 203 200 183 196 202 206 209 224 221 221 231 223 235 246 269 283 285 281 272 252 238 232 254 282 278 283 282 294 186 159 164 159 169 191 247 296 247 229 253 291 341 326 330 342 336 344 343 342 334 332 326 315 294 109 152 152 149 138 129 125 110 93 76 75 78 73 62 46 37 30 21 25 32 37
203 213 221 215 174 196 199 197 199 208 204 197 201 191 192 199 207 209 218 234 219 217 206 215 236 239 265 279 282 278 272 254 246 244 236 247 263 323 25 20 167 206 198 174 212 187 245 300 288 295 336 344 317 311 35 333 328 323 337 334 349 7 29 40 96 114 136 132 130 133 121 107 90 89 86 84 81 69 54 41 28 20 28 36 44
213 203 210 211 212 191 193 199 200 205 207 206 200 197 195 196 202 209 213 218 224 205 201 209 209 217 242 250 252 253 254 253 247 247 251 257 287 79 76 226 137 227 229 189 155 209 218 252 233 249 304 302 270 271 308 294 292 295 312 328 351 37 33 24 95 110 126 133 134 135 122 110 107 102 81 78 81 76 60 47 37 22 31 32 44
345 307 220 204 205 208 214 201 192 211 212 203 203 199 195 194 198 204 210 211 208 211 214 208 211 214 224 232 240 241 242 252 256 242 40 69 115 122 149 304 89 217 285 188 185 178 208 199 284 185 254 297 285 278 279 302 304 310 281 296 27 56 42 50 68 107 126 128 139 134 122 119 124 119 101 83 80 82 74 60 42 31 32 26 39
231 269 312 300 212 203 208 212 212 202 203 200 201 205 205 192 186 195 207 216 225 225 216 218 219 213 215 211 219 231 242 244 257 243 226 164 155 147 171 219 183 178 167 133 167 157 172 200 244 248 226 244 247 261 247 301 321 308 331 341 68 80 53 33 96 104 111 130 136 133 132 135 138 136 120 97 88 85 81 72 56 40 34 37 45
299 307 281 339 332 324 257 211 205 211 211 205 192 193 195 203 203 197 193 204 211 219 231 228 220 214 210 218 236 227 210 217 231 220 200 139 154 162 199 226 233 138 135 148 202 170 164 215 207 279 296 249 291 269 243 201 255 305 326 319 64 88 83 46 11 153 166 171 169 132 131 136 151 154 130 112 106 95 86 77 69 55 42 39 46
182 251 252 149 204 255 300 306 260 206 205 205 200 199 202 196 192 196 213 215 212 213 221 236 355 1 351 331 286 218 218 214 215 181 162 182 200 193 192 206 184 132 174 210 196 204 204 209 241 233 250 262 231 267 263 189 197 224 238 332 331 291 98 146 246 269 233 190 196 178 164 172 169 178 142 132 126 107 94 88 83 74 61 52 52
172 115 108 141 192 237 254 267 284 246 189 198 202 202 195 201 206 207 197 199 2 357 49 76 145 182 209 232 262 250 208 206 180 163 160 196 217 214 207 185 178 157 194 221 240 231 221 223 221 244 238 244 265 253 242 140 230 276 193 170 242 274 283 249 216 222 253 219 144 153 172 141 154 132 143 169 169 127 109 92 84 86 82 75 69
156 126 165 145 153 177 225 355 295 292 225 180 162 134 128 124 117 134 123 85 74 113 147 121 148 200 219 259 269 250 189 170 177 183 197 203 180 180 186 146 158 179 192 212 216 226 236 232 261 263 261 266 258 258 255 217 215 230 192 154 225 243 266 295 262 220 220 188 123 132 180 181 172 186 176 174 186 156 118 134 108 87 85 93 91
134 164 203 269 121 118 152 22 9 300 273 163 134 120 111 130 156 168 154 139 128 119 128 146 167 198 216 228 264 247 223 209 222 226 198 203 210 199 197 192 195 193 210 224 230 221 221 229 236 233 247 257 259 258 245 239 223 130 136 175 213 251 303 287 270 228 201 165 140 184 203 184 177 181 182 181 192 132 127 120 112 101 114 120 105
205 250 103 210 199 184 164 152 163 239 276 251 125 122 134 157 175 184 193 165 155 169 163 171 196 225 239 235 229 248 243 220 200 185 200 217 221 221 216 218 214 208 216 227 233 226 226 231 233 230 238 253 252 244 233 232 206 192 202 190 209 225 257 347 303 309 197 176 183 188 216 191 176 185 195 198 160 136 141 171 160 143 155 154 132
315 320 223 250 235 225 204 180 187 194 208 184 143 159 158 164 182 172 171 174 188 184 175 180 187 204 219 224 233 191 45 325 288 257 209 213 215 224 228 229 237 240 232 216 224 229 225 229 240 241 241 249 259 254 256 253 237 209 212 187 192 194 200 205 222 239 241 179 191 200 232 207 191 191 190 187 157 158 172 170 165 159 168 163 133
341 329 284 340 8 359 347 314 221 199 179 55 205 182 180 177 190 174 165 183 190 193 192 193 195 199 194 217 262 81 92 254 252 242 231 226 228 228 228 234 238 239 243 251 247 239 227 233 237 250 231 238 254 254 237 222 193 213 212 223 217 211 207 207 217 228 255 190 170 207 219 211 189 192 177 172 157 146 145 164 172 172 189 165 124
307 312 345 354 333 325 306 316 347 12 52 18 21 23 16 325 212 241 193 180 200 194 195 196 198 199 192 197 196 158 177 212 346 302 266 236 236 239 234 232 234 253 252 230 236 240 235 233 231 243 246 222 245 249 236 206 183 224 210 232 215 216 220 227 224 211 224 166 183 186 236 219 186 163 179 179 154 151 161 171 173 177 191 166 136
359 9 356 340 331 314 315 58 61 271 54 29 20 30 39 56 179 221 238 207 204 207 205 196 198 196 195 183 151 109 87 167 209 328 301 262 242 246 248 242 244 240 238 247 243 225 224 231 232 238 249 246 249 257 265 283 259 247 241 223 193 217 262 269 263 227 227 208 189 172 224 225 177 172 190 169 162 158 153 164 174 180 193 181 156
15 4 357 348 339 336 52 108 236 311 37 14 5 357 354 7 250 215 215 209 208 177 187 193 178 134 103 101 99 111 126 145 36 15 356 342 344 323 288 281 273 262 253 241 233 242 249 243 242 244 245 257 273 272 299 336 312 285 246 76 66 230 260 270 257 243 229 164 121 166 200 252 192 192 174 162 147 152 157 158 186 186 197 198 179
37 23 11 6 350 330 340 134 108 55 39 13 7 3 356 348 315 230 214 199 194 181 118 90 92 105 111 105 107 106 83 73 51 28 349 350 344 327 323 312 303 298 293 294 255 242 247 250 256 276 288 286 282 275 269 258 247 305 218 235 240 200 218 248 258 243 239 190 359 133 152 233 226 178 149 171 172 163 166 176 171 195 200 205 196
47 34 32 39 34 22 9 71 68 65 49 22 20 13 8 358 335 322 9 95 97 86 92 109 116 105 113 109 87 67 68 54 37 23 350 340 346 349 341 333 318 306 299 309 317 305 288 303 286 270 269 271 272 272 258 231 226 226 220 240 248 193 228 219 243 241 265 217 226 151 125 223 197 128 154 144 109 117 165 158 167 180 192 209 212
53 42 41 38 40 45 53 59 66 68 55 29 24 22 19 13 358 0 19 77 74 51 31 57 85 68 52 61 64 62 66 55 40 17 355 346 315 315 287 286 288 292 300 0 335 317 312 300 283 270 260 248 249 249 254 238 231 236 222 236 247 233 234 232 233 244 245 245 229 181 166 236 142 336 139 131 177 148 141 150 169 182 184 183 189